Hourly Data Report for November 29, 2004

SHERBROOKE A
QUEBEC

45°26'00.000" N
71°41'00.000" W
241.40 m
7028124
71610
YSC

Download Data

Hourly Data (November 2004)
Hourly Data Report for November 29, 2004
TIME
LST
Temp Definition
°C
Dew Point Definition
°C
Rel Hum Definition
%
Precip. Amount Definition
mm

Wind Dir Definition
10's deg

Wind Spd Definition
km/h
Visibility Definition
km
Stn Press Definition
kPa
Hmdx Definition


Wind Chill Definition


Weather Definition


00:00 2.4 1.7 95   25 4 6.4 98.48      
01:00 3.0 1.3 89   26 15 15.0 98.55      
02:00 2.9 0.0 81   26 15 15.0 98.63     Rain
03:00 2.8 0.1 82   26 20 15.0 98.69      
04:00 2.4 -0.2 83   27 24 15.0 98.79      
05:00 1.8 -1.3 80   27 17 15.0 98.85      
06:00 0.8 -2.7 77   25 15 15.0 99.04      
07:00 0.1 -3.1 79   28 19 15.0 99.10      
08:00 0.0 -3.2 79   27 22 24.1 99.22   -6 Mostly Cloudy
09:00 0.0 -3.8 76   27 22 24.1 99.42   -6 Mostly Cloudy
10:00 0.2 -3.8 74   27 11 24.1 99.47     Mostly Cloudy
11:00 0.1 -4.8 70   28 20 24.1 99.51     Cloudy
12:00 -0.1 -5.1 69   29 19 24.1 99.56   -5 Cloudy
13:00 -0.2 -5.2 69   29 11 24.1 99.59   -4 Cloudy
14:00 -0.4 -5.5 68   27 11 24.1 99.63   -4 Cloudy
15:00 -0.3 -5.7 67   27 11 24.1 99.67   -4 Cloudy
16:00 -0.7 -5.2 72   27 9 24.1 99.68   -4 Cloudy
17:00 -0.9 -6.3 67   27 7 24.1 99.67   -3 Cloudy
18:00 -1.2 -6.4 68   26 11 15.0 99.70   -5  
19:00 -1.4 -6.8 67   27 9 15.0 99.63   -5  
20:00 -1.7 -6.6 69   29 6 15.0 99.61   -4  
21:00 -1.8 -7.0 68   25 7 15.0 99.60   -4  
22:00 -3.0 -6.9 74   26 4 15.0 99.60   -5  
23:00 -3.1 -6.4 78     0 15.0 99.61      

Notes on Data Quality.

Legend

  • E = Estimated
  • M = Missing
  • NA = Not Available*
  • [empty] = Indicates an unobserved value
Date modified: